ISS DEB (ROSA)

Last updated on Sun Feb 04 2018 00:15:07 GMT+0000 (Coordinated Universal Time)

1 42813U 98067MT 18034.62290082 .15228575 12406-4 85364-3 0 9994 2 42813 51.6149 299.9923 0007135 247.0242 113.0033 16.41949671 35003

Satellite not in orbit